Retour au catalogue

COSMOS 409

ActifMilitaireLEO
NORAD 5180·PAYLOAD·🇷🇺 Russia

Lancé Apr 28, 1971 depuis Plesetsk Cosmodrome

Loading…

Prochains Passages (prochaines 24 heures)

TLE

FraisSource: Space-Track

Époque: Sep 14, 2026, 08:44 UTC

1 05180U 71038A   26257.36400196  .00000203  00000-0  56857-3 0  9993
2 05180  73.9989 239.2211 0021997 112.3361  40.7911 13.17846976663993

Suivez COSMOS 409 en temps réel avec AllMySat

Download on the App Store